• en France
  • Liste des pays
  • À 7 jours
  • Température de l'eau
  • Carte satellitaire
  • Carte météo
  • Widgets météo
  • user-avatar
    Se connecter

    Météo par heure à Neiva

    Ce jour, 14 Décembre, Jeudi

    Heure Température Précipitation Vent Pression Humidité
    00:00 +24°C° 0 mm 1 m/s 720 mmHg 83%
    01:00 +24°C° 0 mm 1 m/s 720 mmHg 82%
    02:00 +24°C° 0 mm 1 m/s 720 mmHg 82%
    03:00 +24°C° 0 mm 1 m/s 720 mmHg 81%
    04:00 +24°C° 0 mm 1 m/s 720 mmHg 81%
    05:00 +24°C° 0 mm 1 m/s 720 mmHg 79%
    06:00 +25°C° 0 mm 1 m/s 721 mmHg 78%
    07:00 +25°C° 0 mm 1 m/s 721 mmHg 76%
    08:00 +27°C° 0 mm 1 m/s 721 mmHg 69%
    09:00 +29°C° 0 mm 1 m/s 722 mmHg 61%
    10:00 +31°C° 0 mm 1 m/s 722 mmHg 54%
    11:00 +32°C° 0 mm 1 m/s 721 mmHg 51%
    12:00 +33°C° 0 mm 1 m/s 721 mmHg 49%
    13:00 +34°C° 0 mm 1 m/s 720 mmHg 46%
    14:00 +34°C° 0,1 mm 1 m/s 719 mmHg 47%
    15:00 +33°C° 0,1 mm 1 m/s 719 mmHg 49%
    16:00 +33°C° 0,1 mm 1 m/s 718 mmHg 50%
    17:00 +31°C° 0 mm 1 m/s 719 mmHg 56%
    18:00 +29°C° 0 mm 1 m/s 719 mmHg 62%
    19:00 +27°C° 0 mm 1 m/s 719 mmHg 67%
    20:00 +26°C° 0 mm 2 m/s 720 mmHg 67%
    21:00 +26°C° 0 mm 2 m/s 721 mmHg 66%
    22:00 +25°C° 0 mm 2 m/s 721 mmHg 66%
    23:00 +25°C° 0 mm 2 m/s 721 mmHg 66%

    Demain, 15 Décembre, Vendredi

    Heure Température Précipitation Vent Pression Humidité
    00:00 +24°C° 0 mm 2 m/s 721 mmHg 65%
    01:00 +24°C° 0 mm 2 m/s 721 mmHg 65%
    02:00 +24°C° 0 mm 2 m/s 720 mmHg 65%
    03:00 +24°C° 0 mm 2 m/s 720 mmHg 65%
    04:00 +23°C° 0 mm 2 m/s 720 mmHg 65%
    05:00 +24°C° 0 mm 1 m/s 720 mmHg 64%
    06:00 +25°C° 0 mm 1 m/s 721 mmHg 63%
    07:00 +25°C° 0 mm 1 m/s 721 mmHg 61%
    08:00 +28°C° 0 mm 1 m/s 721 mmHg 55%
    09:00 +31°C° 0 mm 1 m/s 722 mmHg 49%
    10:00 +33°C° 0 mm 1 m/s 722 mmHg 43%
    11:00 +34°C° 0 mm 1 m/s 721 mmHg 42%
    12:00 +35°C° 0 mm 1 m/s 720 mmHg 41%
    13:00 +36°C° 0 mm 1 m/s 719 mmHg 40%
    14:00 +35°C° 0,1 mm 1 m/s 719 mmHg 42%
    15:00 +35°C° 0,1 mm 1 m/s 718 mmHg 44%
    16:00 +34°C° 0,1 mm 1 m/s 717 mmHg 47%
    17:00 +32°C° 0,2 mm 1 m/s 718 mmHg 53%
    18:00 +30°C° 0,2 mm 1 m/s 718 mmHg 60%
    19:00 +28°C° 0,2 mm 1 m/s 719 mmHg 66%
    20:00 +27°C° 0 mm 1 m/s 719 mmHg 67%
    21:00 +27°C° 0 mm 1 m/s 720 mmHg 68%
    22:00 +26°C° 0 mm 2 m/s 721 mmHg 69%
    23:00 +26°C° 0 mm 1 m/s 721 mmHg 69%

    Après-demain, 16 Décembre, Samedi

    Heure Température Précipitation Vent Pression Humidité
    00:00 +25°C° 0 mm 1 m/s 720 mmHg 70%
    01:00 +25°C° 0 mm 1 m/s 720 mmHg 71%
    02:00 +25°C° 0 mm 1 m/s 720 mmHg 72%
    03:00 +24°C° 0 mm 1 m/s 719 mmHg 72%
    04:00 +24°C° 0 mm 1 m/s 719 mmHg 73%
    05:00 +25°C° 0 mm 1 m/s 720 mmHg 72%
    06:00 +25°C° 0 mm 1 m/s 720 mmHg 70%
    07:00 +26°C° 0 mm 1 m/s 721 mmHg 68%
    08:00 +28°C° 0 mm 1 m/s 721 mmHg 62%
    09:00 +30°C° 0 mm 1 m/s 721 mmHg 55%
    10:00 +33°C° 0 mm 1 m/s 722 mmHg 48%
    11:00 +33°C° 0,1 mm 1 m/s 721 mmHg 47%
    12:00 +35°C° 0,1 mm 2 m/s 720 mmHg 46%
    13:00 +35°C° 0,1 mm 2 m/s 719 mmHg 45%
    14:00 +34°C° 0,1 mm 1 m/s 719 mmHg 46%
    15:00 +34°C° 0,1 mm 1 m/s 718 mmHg 47%
    16:00 +34°C° 0,1 mm 1 m/s 717 mmHg 48%
    17:00 +32°C° 0,1 mm 1 m/s 718 mmHg 55%
    18:00 +29°C° 0,1 mm 1 m/s 718 mmHg 62%
    19:00 +27°C° 0,1 mm 1 m/s 718 mmHg 70%
    20:00 +27°C° 0 mm 1 m/s 719 mmHg 70%
    21:00 +26°C° 0 mm 1 m/s 719 mmHg 71%
    22:00 +26°C° 0 mm 1 m/s 720 mmHg 71%
    23:00 +25°C° 0 mm 1 m/s 720 mmHg 72%

    17 Décembre, Dimanche

    Heure Température Précipitation Vent Pression Humidité
    00:00 +25°C° 0 mm 1 m/s 719 mmHg 72%
    01:00 +24°C° 0 mm 1 m/s 719 mmHg 72%
    02:00 +24°C° 0 mm 1 m/s 719 mmHg 71%
    03:00 +24°C° 0 mm 1 m/s 719 mmHg 70%
    04:00 +24°C° 0 mm 1 m/s 719 mmHg 69%
    05:00 +24°C° 0 mm 1 m/s 719 mmHg 65%
    06:00 +25°C° 0 mm 1 m/s 720 mmHg 62%
    07:00 +25°C° 0 mm 1 m/s 720 mmHg 59%
    08:00 +28°C° 0 mm 1 m/s 721 mmHg 52%
    09:00 +30°C° 0 mm 1 m/s 721 mmHg 45%
    10:00 +33°C° 0 mm 1 m/s 721 mmHg 37%
    11:00 +34°C° 0 mm 1 m/s 720 mmHg 35%
    12:00 +35°C° 0 mm 1 m/s 720 mmHg 33%
    13:00 +38°C° 0 mm 2 m/s 719 mmHg 30%
    14:00 +37°C° 0 mm 2 m/s 718 mmHg 31%
    15:00 +37°C° 0 mm 2 m/s 718 mmHg 31%
    16:00 +35°C° 0 mm 1 m/s 717 mmHg 31%
    17:00 +32°C° 0 mm 2 m/s 717 mmHg 37%
    18:00 +29°C° 0 mm 2 m/s 718 mmHg 43%
    19:00 +26°C° 0 mm 2 m/s 719 mmHg 49%
    20:00 +26°C° 0 mm 2 m/s 719 mmHg 49%
    21:00 +25°C° 0 mm 2 m/s 720 mmHg 50%
    22:00 +24°C° 0 mm 2 m/s 720 mmHg 50%
    23:00 +24°C° 0 mm 2 m/s 720 mmHg 50%

    18 Décembre, Lundi

    Heure Température Précipitation Vent Pression Humidité
    00:00 +24°C° 0 mm 2 m/s 720 mmHg 50%
    01:00 +23°C° 0 mm 2 m/s 719 mmHg 50%
    02:00 +23°C° 0 mm 2 m/s 719 mmHg 50%
    03:00 +23°C° 0 mm 2 m/s 719 mmHg 50%
    04:00 +23°C° 0 mm 2 m/s 719 mmHg 50%
    05:00 +23°C° 0 mm 2 m/s 719 mmHg 50%
    06:00 +24°C° 0 mm 2 m/s 720 mmHg 50%
    07:00 +24°C° 0 mm 2 m/s 721 mmHg 49%
    08:00 +27°C° 0 mm 2 m/s 721 mmHg 43%
    09:00 +30°C° 0 mm 1 m/s 721 mmHg 37%
    10:00 +34°C° 0 mm 1 m/s 721 mmHg 31%
    11:00 +35°C° 0 mm 1 m/s 720 mmHg 29%
    12:00 +37°C° 0 mm 2 m/s 720 mmHg 28%
    13:00 +38°C° 0 mm 2 m/s 719 mmHg 26%
    14:00 +37°C° 0 mm 2 m/s 718 mmHg 27%
    15:00 +37°C° 0 mm 2 m/s 718 mmHg 29%
    16:00 +36°C° 0 mm 2 m/s 717 mmHg 30%
    17:00 +34°C° 0 mm 2 m/s 718 mmHg 37%
    18:00 +30°C° 0 mm 2 m/s 718 mmHg 44%
    19:00 +27°C° 0 mm 2 m/s 719 mmHg 51%
    20:00 +26°C° 0 mm 2 m/s 720 mmHg 52%
    21:00 +26°C° 0 mm 2 m/s 720 mmHg 52%
    22:00 +25°C° 0 mm 2 m/s 721 mmHg 53%
    23:00 +25°C° 0 mm 2 m/s 721 mmHg 53%

    19 Décembre, Mardi

    Heure Température Précipitation Vent Pression Humidité
    00:00 +24°C° 0 mm 2 m/s 720 mmHg 53%
    01:00 +24°C° 0 mm 2 m/s 720 mmHg 54%
    02:00 +24°C° 0 mm 2 m/s 720 mmHg 54%
    03:00 +23°C° 0 mm 2 m/s 720 mmHg 54%
    04:00 +23°C° 0 mm 2 m/s 720 mmHg 55%
    05:00 +24°C° 0 mm 1 m/s 720 mmHg 55%
    06:00 +24°C° 0 mm 1 m/s 721 mmHg 54%
    07:00 +25°C° 0 mm 1 m/s 721 mmHg 54%
    08:00 +28°C° 0 mm 1 m/s 721 mmHg 48%
    09:00 +31°C° 0 mm 1 m/s 721 mmHg 41%
    10:00 +34°C° 0 mm 1 m/s 721 mmHg 35%
    11:00 +35°C° 0 mm 1 m/s 721 mmHg 33%
    12:00 +37°C° 0 mm 2 m/s 720 mmHg 31%
    13:00 +38°C° 0 mm 2 m/s 719 mmHg 29%
    14:00 +38°C° 0 mm 2 m/s 718 mmHg 30%
    15:00 +37°C° 0 mm 2 m/s 718 mmHg 32%
    16:00 +35°C° 0 mm 1 m/s 717 mmHg 33%
    17:00 +33°C° 0 mm 1 m/s 718 mmHg 39%
    18:00 +30°C° 0 mm 2 m/s 719 mmHg 46%
    19:00 +28°C° 0 mm 2 m/s 719 mmHg 53%
    20:00 +27°C° 0 mm 2 m/s 720 mmHg 56%
    21:00 +26°C° 0 mm 2 m/s 720 mmHg 58%
    22:00 +26°C° 0 mm 2 m/s 721 mmHg 60%
    23:00 +25°C° 0 mm 2 m/s 721 mmHg 62%
    Voir plus